{"data":{"norad_id":52849,"epoch":"2026-05-25T03:32:59.379936Z","epoch_age_seconds":76331,"freshness":"FRESH","line1":"1 52849U 22062V   26145.14790949  .00000368  00000+0  41203-4 0  9991","line2":"2 52849  53.2127  40.8854 0001309  83.1706 276.9435 15.08836626217468","mean_motion":15.08836626,"eccentricity":0.0001309,"inclination_deg":53.2127,"raan_deg":40.8854,"arg_perigee_deg":83.1706,"mean_anomaly_deg":276.9435,"bstar":4.1203e-5,"rev_number":21746,"period_min":95.437768091401,"perigee_km":538.84815005865,"apogee_km":540.65925384442,"semimajor_km":6917.8907019515,"source":"CELESTRAK","updated_at":"2026-05-25T13:38:17.244599Z"}}